Tracking 31027 objects as of 19-Jul-2025
HD Live streaming from Space Station
objects crossing your sky now

FAST

Track FAST now!
10-day predictions
FAST is classified as:


NORAD ID: 24285
Int'l Code: 1996-049A
Perigee: 352.2 km
Apogee: 3,223.3 km
Inclination: 82.9 °
Period: 122.2 minutes
Semi major axis: 8158 km
RCS: 1.3393 m2 (large)
Launch date: August 21, 1996
Source: United States (US)
Launch site: AIR FORCE WESTERN TEST RANGE (AFWTR)

Designed to study Earth's aurora.
Your satellite tracking list
NOAA 16 DEB
Track 1 satellite(s)




NASA's NSSDC Master Catalog

Two Line Element Set (TLE):
1 24285U 96049A   25199.80186250  .00005559  00000-0  42052-3 0  9995
2 24285  82.9458 226.4023 1759558  82.5818 297.0797 11.78062398193313
Source of the keplerian elements: AFSPC